User: anonymous   Login
Location: Unspecified
(0.0000°N, 0.0000°E)
Time: 03:42:03
(UTC+00:00)
Language:

NOAA 7 - Orbit

View from above orbital plane
View from above orbital plane
View from above satellite
View from above satellite

Ground track
Ground track

The orbit data is extracted from the following two-line orbital elements,

1 12553U 81059A   18017.51864876 -.00000016 +00000-0 +14959-4 0  9991
2 12553 099.0733 008.3432 0011732 013.9492 096.5755 14.17233907889695
Epoch (UTC): 17 January 2018 12:26:51
Eccentricity: 0.0011732
inclination: 99.0733°
perigee height: 826 km
apogee height: 843 km
right ascension of ascending node: 8.3432°
argument of perigee: 13.9492°
revolutions per day: 14.17233907
mean anomaly at epoch: 96.5755°
orbit number at epoch: 88969

The dashed part of the orbit path shows where the satellite is in the earth's shadow,  

DLR